Lerna, IL

4:24 PM CDT on July 28, 2016 (GMT -0500)
Coles County Memorial

Weather History for KMTO - February, 2014

Change the Weather History Date:

Friday, February 21, 2014

  Actual Average Record
Temperature  
Mean Temperature 39 °F 34 °F  
Max Temperature 45 °F 42 °F 67 °F (1983)
Min Temperature 32 °F 26 °F -4 °F (1963)
Degree Days  
Heating Degree Days 26 31  
Month to date heating degree days 954 721  
Since 1 July heating degree days 4557 3997  
Cooling Degree Days 0 0  
Month to date cooling degree days 0 0  
Year to date cooling degree days 0 0  
Moisture  
Dew Point 23 °F    
Average Humidity 56    
Maximum Humidity 75    
Minimum Humidity 37    
Precipitation  
Precipitation T in 0.06 in 1.27 in (1974)
Month to date precipitation 1.65 1.38  
Year to date precipitation 1.93 3.59  
Sea Level Pressure  
Sea Level Pressure 29.82 in    
Wind  
Wind Speed 14 mph (SW)    
Max Wind Speed 26 mph    
Max Gust Speed 36 mph    
Visibility 10 miles    
Events Rain    
T = Trace of Precipitation, MM = Missing Value Source: NWS Daily Summary

Daily Weather History Graph

Daily Weather History Graph

Search for Another Location

Airport or City:

Trip Planner

Search our weather history database for the weather conditions in past years. The results will help you decide how hot, cold, wet, or windy it might be!

Date:

Astronomy

Feb. 21, 2014 Rise Set
Actual Time 6:37 AM CST 5:36 PM CST
Civil Twilight 6:10 AM CST 6:03 PM CST
Nautical Twilight 5:38 AM CST 6:35 PM CST
Astronomical Twilight 5:07 AM CST 7:06 PM CST
Moon No Moon Rise 10:03 AM CST (2/21)
Length of Visible Light 11h 53m
Length of Day
10h 59m
Waning Gibbous, 60% of the Moon is Illuminated
Feb 21
Waning Gibbous
Feb 22
Last Quarter
Mar 1
New
Mar 8
First Quarter
Mar 16
Full

Hourly Weather History & Observations

Time (CST) Temp. Windchill Dew Point Humidity Pressure Visibility Wind Dir Wind Speed Gust Speed Precip Events Conditions
12:53 AM 37.0 °F 28.9 °F 28.0 °F 70% 29.66 in 10.0 mi SW 12.7 mph 21.9 mph N/A   Clear
1:53 AM 37.0 °F 28.5 °F 28.0 °F 70% 29.67 in 10.0 mi SW 13.8 mph 24.2 mph N/A   Clear
2:53 AM 37.0 °F 27.7 °F 26.1 °F 65% 29.67 in 10.0 mi SW 16.1 mph 27.6 mph N/A   Clear
3:53 AM 37.0 °F 27.7 °F 26.1 °F 65% 29.67 in 10.0 mi WSW 16.1 mph 23.0 mph N/A   Overcast
4:53 AM 35.1 °F 24.8 °F 21.9 °F 59% 29.71 in 10.0 mi WSW 17.3 mph 27.6 mph N/A   Overcast
5:53 AM 33.1 °F 22.2 °F 21.9 °F 64% 29.75 in 10.0 mi WSW 17.3 mph 31.1 mph N/A   Overcast
6:53 AM 33.1 °F 23.9 °F 21.9 °F 64% 29.77 in 10.0 mi West 12.7 mph 25.3 mph N/A   Mostly Cloudy
7:53 AM 34.0 °F 23.0 °F 21.9 °F 61% 29.80 in 10.0 mi WSW 18.4 mph 26.5 mph N/A   Clear
8:53 AM 34.0 °F 22.1 °F 21.0 °F 59% 29.81 in 10.0 mi West 21.9 mph 32.2 mph N/A   Clear
9:53 AM 34.0 °F 22.4 °F 21.0 °F 59% 29.85 in 10.0 mi West 20.7 mph 32.2 mph N/A   Clear
10:53 AM 36.0 °F 24.4 °F 19.9 °F 52% 29.89 in 10.0 mi WSW 23.0 mph 35.7 mph N/A   Clear
11:53 AM 37.9 °F 28.2 °F 19.0 °F 47% 29.88 in 10.0 mi WSW 18.4 mph 28.8 mph N/A   Clear
12:53 PM 39.9 °F 30.8 °F 19.0 °F 43% 29.88 in 10.0 mi WSW 18.4 mph 28.8 mph N/A   Clear
1:53 PM 43.0 °F 35.1 °F 19.9 °F 40% 29.87 in 10.0 mi West 17.3 mph 24.2 mph N/A   Clear
2:53 PM 45.0 °F 38.2 °F 19.9 °F 37% 29.87 in 10.0 mi WSW 15.0 mph 23.0 mph N/A   Clear
3:53 PM 45.0 °F 40.1 °F 21.9 °F 40% 29.89 in 10.0 mi SW 9.2 mph 19.6 mph N/A   Clear
4:53 PM 44.1 °F 39.0 °F 23.0 °F 43% 29.88 in 10.0 mi SSW 9.2 mph - N/A   Clear
5:53 PM 42.1 °F 37.7 °F 21.9 °F 45% 29.88 in 10.0 mi South 6.9 mph - N/A   Clear
6:53 PM 39.9 °F 34.5 °F 23.0 °F 51% 29.88 in 10.0 mi South 8.1 mph - N/A   Clear
7:53 PM 39.9 °F 32.9 °F 23.0 °F 51% 29.87 in 10.0 mi South 11.5 mph - N/A   Mostly Cloudy
8:53 PM 41.0 °F 33.5 °F 24.1 °F 51% 29.86 in 10.0 mi South 13.8 mph 21.9 mph N/A   Overcast
9:53 PM 39.9 °F 35.1 °F 26.1 °F 58% 29.89 in 10.0 mi WSW 6.9 mph 19.6 mph N/A   Overcast
10:53 PM 42.1 °F 36.6 °F 26.1 °F 53% 29.91 in 10.0 mi SW 9.2 mph - N/A   Overcast
11:53 PM 42.1 °F 36.6 °F 27.0 °F 55% 29.91 in 10.0 mi SW 9.2 mph - 0.00 in Rain Light Rain